Aérodrome :
LOGIN :

S'inscrire | Disclaimer

   EN    FR    IT 

 










Légende :    VFR   VFR Marginal   IFR   IFR Intensif   IFR Très Intensif
Visi : 
Plafond : 
>= 8 km
>= 3000ft
5 à 8 km
1000 à 3000 ft
1500m à 5 km
500 à 1000 ft
800 à 1500m
200 à 500 ft
< 800m
< 200 ft
Symboles :   Orages  Brouillard  Fortes neiges  Fortes précipitations  Vent > 20 kt
SIGMETs :   Divers  Orages  Givrage  Turbulence  Onde Orograph.  Cendres Volcan.






- Altitude de l'aérodrome : 52 ft
- Code IATA : IOM


EGNS - Isle of Man

DERNIER METAR :
  • 011820Z 26008KT 230V290 9999 SCT030 BKN035 09/04 Q1021 NOSIG

METARs EXPIRÉS :
  • 011750Z 28008KT 9999 BKN030 09/03 Q1021 NOSIG
  • 011720Z 30009KT 9999 FEW025 BKN034 09/03 Q1021 NOSIG
  • 011650Z 29011KT 9999 FEW035 BKN040 09/03 Q1021 NOSIG
  • 011620Z 30007KT 9999 FEW025 SCT035 BKN042 09/03 Q1022 NOSIG

TAF TAF EGNS
Valide du 01 à 18h jusqu'au 01 à 21h UTC


011700Z 0118/0121 28010KT 9999 FEW020 BKN040
PROB30
TEMPO 0118/0121 8000 -SHRA BKN014



MET'MAP, la Météo Aéronautique d'un coup d'oeil ! - Copyright ORBIFLY Décembre 2007 - Disclaimer

ORBIFLY MET'MAP TEAM :

Programmation & Développement : Alexandra Zaïnal
Sur une idée originale de : Baudouin d'Aumeries
Assistance à la programmation : Marc-Olivier Méhu
Soutien technique & logistique : Manuel Goepfert

Contact : metmap@orbifly.com




SOURCES & CREDITS :

   NOAA